Location: Christchurch
(43.5000°S, 172.6000°E)
Time: 08:57:12
(UTC+12:00)

ISS - Visible Passes

Search period start: 28 June 2017 00:00
Search period end: 08 July 2017 00:00
Orbit: 401 x 408 km, 51.6° (Epoch: 28 June)

Date Brightness Start Highest point End Pass type
(mag) Time Alt. Az. Time Alt. Az. Time Alt. Az.
28 Jun -0.4 19:54:37 10° NW 19:54:39 10° NW 19:54:39 10° NW visible
29 Jun -2.5 19:02:38 10° NNW 19:04:53 32° N 19:04:53 32° N visible
30 Jun -2.2 18:11:02 10° N 18:13:42 22° NE 18:15:01 18° ENE visible
30 Jun -0.9 19:46:42 10° WNW 19:47:42 18° W 19:47:42 18° W visible
01 Jul -3.9 18:54:22 10° WNW 18:57:42 89° SSW 18:57:45 87° SSE visible
02 Jul -3.4 18:02:15 10° NW 18:05:29 50° NE 18:07:45 18° ESE visible
02 Jul -1.2 19:39:03 10° W 19:40:25 20° WSW 19:40:25 20° WSW visible
03 Jul -3.1 18:46:28 10° W 18:49:42 45° SSW 18:50:20 39° S visible
04 Jul -3.7 17:54:02 10° WNW 17:57:22 74° SSW 18:00:13 14° SE visible
04 Jul -1.2 19:31:30 10° WSW 19:32:52 18° SW 19:32:52 18° SW visible
05 Jul -2.4 18:38:48 10° W 18:41:47 29° SSW 18:42:42 25° SSE visible
06 Jul -2.8 17:46:08 10° W 17:49:19 39° SSW 17:52:30 10° SE visible
06 Jul -1.3 19:23:51 10° SW 19:25:09 16° SW 19:25:09 16° SW visible
07 Jul -2.0 18:31:11 10° WSW 18:33:53 22° S 18:34:56 19° SSE visible
